Location: Newark
(39.9267°N, 1.8017°W)
Time: 00:18:37
(UTC+00:00)

Hubble Space Telescope - Visible Passes

Search period start: 23 October 2019 00:00
Search period end: 02 November 2019 00:00
Orbit: 536 x 540 km, 28.5° (Epoch: 21 October)

Date Brightness Start Highest point End Pass type
(mag) Time Alt. Az. Time Alt. Az. Time Alt. Az.
31 Oct 3.4 04:22:36 11° SSE 04:22:45 11° SSE 04:23:56 10° SSE visible
31 Oct 3.1 06:00:34 10° SW 06:03:12 16° S 06:05:49 10° SE visible
01 Nov 3.4 04:12:47 12° SSE 04:12:47 12° SSE 04:13:50 10° SE visible
01 Nov 3.0 05:49:51 10° SW 05:52:30 17° S 05:55:09 10° SE visible
